WetterOnline ( https://www.wetteronline.ch )

Wetter aktuell Konstanz

Aktuelles Wetter: Konstanz (397m)

6-stündlich | Neueste Meldungen
Ortszeit Temperatur Wetter
Di, 20.08. 8:00 16.4° C leichter Regen
Di, 20.08. 2:00 16.2° C wolkig
Mo, 19.08. 20:00 19.0° C bedeckt
Mo, 19.08. 14:00 21.1° C bedeckt
Mo, 19.08. 8:00 17.3° C leichter Regen
Mo, 19.08. 2:00 18.0° C Regen
So, 18.08. 20:00 27.8° C -
So, 18.08. 14:00 28.0° C wolkenlos
Ortszeit Temperatur Wetter
Di, 20.08. 11:30 15.8° C starker Regen
Di, 20.08. 11:20 15.8° C starker Regen
Di, 20.08. 11:10 16.1° C leichter Regen
Di, 20.08. 11:00 16.3° C leichter Regen
Di, 20.08. 10:50 16.3° C leichter Regen
Di, 20.08. 10:40 16.2° C leichter Regen
Di, 20.08. 10:30 16.0° C leichter Regen
Di, 20.08. 10:00 16.5° C leichter Regen
Di, 20.08. 9:30 16.8° C leichter Regen
Di, 20.08. 9:00 16.7° C Sprühregen
Di, 20.08. 8:30 16.7° C Sprühregen
Ortszeit Relative Feuchte Sichtweite
Di, 20.08. 8:00 94% 30 km
Di, 20.08. 2:00 94% 70 km
Mo, 19.08. 20:00 85% 65 km
Mo, 19.08. 14:00 77% 70 km
Mo, 19.08. 8:00 93% 27 km
Mo, 19.08. 2:00 92% 8 km
So, 18.08. 20:00 48% 70 km
So, 18.08. 14:00 46% 40 km
Ortszeit Relative Feuchte Sichtweite
Di, 20.08. 11:30 90% 5.0 km
Di, 20.08. 11:20 90% -
Di, 20.08. 11:10 90% -
Di, 20.08. 11:00 90% 14 km
Di, 20.08. 10:50 90% -
Di, 20.08. 10:40 90% -
Di, 20.08. 10:30 89% 16 km
Di, 20.08. 10:00 90% 19 km
Di, 20.08. 9:30 90% 26 km
Di, 20.08. 9:00 92% 30 km
Di, 20.08. 8:30 92% 45 km
Ortszeit Niederschlagsmenge Niederschlagsart
Di, 20.08. 8:00 5 l/m2 in 12 Std. Regen
Di, 20.08. 2:00 5 l/m2 in 6 Std. Regen
Mo, 19.08. 20:00 1 l/m2 in 12 Std. Regen
Mo, 19.08. 14:00 0.3 l/m2 in 6 Std. Regen
Mo, 19.08. 8:00 17 l/m2 in 12 Std. Regen
Mo, 19.08. 2:00 7 l/m2 in 6 Std. Regen
So, 18.08. 20:00 0.0 l/m2 in 12 Std. -
So, 18.08. 14:00 0.0 l/m2 in 6 Std. -
Ortszeit Niederschlagsmenge Niederschlagsart
Di, 20.08. 11:30 0.5 l/m2 in 1 Std. -
Di, 20.08. 11:20 keine Meldung -
Di, 20.08. 11:10 keine Meldung -
Di, 20.08. 11:00 0.7 l/m2 in 1 Std. Regen
Di, 20.08. 10:50 keine Meldung -
Di, 20.08. 10:40 keine Meldung -
Di, 20.08. 10:30 0.3 l/m2 in 1 Std. -
Di, 20.08. 10:00 0.2 l/m2 in 1 Std. Regen
Di, 20.08. 9:30 0.1 l/m2 in 1 Std. -
Di, 20.08. 9:00 0.1 l/m2 in 1 Std. Regen
Di, 20.08. 8:30 0.1 l/m2 in 1 Std. -
Ortszeit Stärke Spitze Richtung
km/h Bft. km/h Grad Sektor
Di, 20.08. 8:00 6 1 11 320° NW
Di, 20.08. 2:00 6 1 17 320° NW
Mo, 19.08. 20:00 7 2 18 310° NW
Mo, 19.08. 14:00 7 2 18 40° NO
Mo, 19.08. 8:00 11 2 22 190° S
Mo, 19.08. 2:00 13 3 56 230° SW
So, 18.08. 20:00 7 2 26 290° W
So, 18.08. 14:00 7 2 14 90° O
Ortszeit Stärke Spitze Richtung
km/h Bft. km/h Grad Sektor
Di, 20.08. 11:30 6 1 15 340° N
Di, 20.08. 11:20 6 1 - 340° N
Di, 20.08. 11:10 6 1 - 360° N
Di, 20.08. 11:00 7 2 18 360° N
Di, 20.08. 10:50 7 2 - 360° N
Di, 20.08. 10:40 7 2 - 10° N
Di, 20.08. 10:30 9 2 17 350° N
Di, 20.08. 10:00 6 1 13 340° N
Di, 20.08. 9:30 6 1 13 350° N
Di, 20.08. 9:00 7 2 11 30° NO
Di, 20.08. 8:30 4 1 7 360° N
Ortszeit Untergrenze Bedeckung Gattung
total tief tief mittel hoch
Di, 20.08. 8:00 540 m 8/8 7/8 - - -
Di, 20.08. 2:00 210 m 8/8 2/8 - - -
Mo, 19.08. 20:00 750 m 8/8 8/8 - - -
Mo, 19.08. 14:00 870 m 8/8 8/8 - - -
Mo, 19.08. 8:00 1500 m 7/8 8/8 - - -
Mo, 19.08. 2:00 1020 m 7/8 7/8 - - -
So, 18.08. 20:00 - - - - - -
So, 18.08. 14:00 - 0/8 0/8 - - -
Ortszeit Bedeckungsgrad in Achtel und Wolkenuntergrenze
Di, 20.08. 11:30 4(1110m) 6(1320m) 8(1800m)
Di, 20.08. 11:20 4(1110m) 6(1320m) 8(1800m)
Di, 20.08. 11:10 6(1140m) 7(1410m) 8(1500m)
Di, 20.08. 11:00 4(1080m) 7(1380m) 8(3000m)
Di, 20.08. 10:50 4(1080m) 7(1380m) 8(3000m)
Di, 20.08. 10:40 6(1080m) 7(1800m) 8(3000m)
Di, 20.08. 10:30 8(1080m) 8(2700m)
Di, 20.08. 10:00 7(1080m) 8(2700m)
Di, 20.08. 9:30 4(1110m) 7(3000m)
Di, 20.08. 9:00 1(600m) 8(3000m) 8(3900m)
Di, 20.08. 8:30 7(510m) 8(1020m) 8(3900m)
Ortszeit Luftdruck NN (hPa) Tendenz (hPa in 3 Std.)
Di, 20.08. 8:00 1021 + 0,1
Di, 20.08. 2:00 1021 + 0,7
Mo, 19.08. 20:00 1019 + 0,8
Mo, 19.08. 14:00 1017 + 0,5
Mo, 19.08. 8:00 1017 + 0,7
Mo, 19.08. 2:00 1016 + 5,0
So, 18.08. 20:00 1008 + 0,2
So, 18.08. 14:00 1009 - 0,9
Ortszeit Luftdruck NN (hPa) Tendenz (hPa in 3 Std.)
Di, 20.08. 11:30 1022 + 1,0
Di, 20.08. 11:20 1022 keine Meldung
Di, 20.08. 11:10 1021 keine Meldung
Di, 20.08. 11:00 1021 + 0,8
Di, 20.08. 10:50 1021 keine Meldung
Di, 20.08. 10:40 1021 keine Meldung
Di, 20.08. 10:30 1021 + 0,5
Di, 20.08. 10:00 1021 + 0,9
Di, 20.08. 9:30 1021 + 0,1
Di, 20.08. 9:00 1021 + 0,4
Di, 20.08. 8:30 1020 + 0,1
Ortszeit Schneehöhe (cm)
Di, 20.08. 8:00 -
Di, 20.08. 2:00 -
Mo, 19.08. 20:00 -
Mo, 19.08. 14:00 -
Mo, 19.08. 8:00 -
Mo, 19.08. 2:00 -
So, 18.08. 20:00 -
So, 18.08. 14:00 -
Ortszeit Schneehöhe (cm)
Di, 20.08. 11:30 -
Di, 20.08. 11:20 -
Di, 20.08. 11:10 -
Di, 20.08. 11:00 -
Di, 20.08. 10:50 -
Di, 20.08. 10:40 -
Di, 20.08. 10:30 -
Di, 20.08. 10:00 -
Di, 20.08. 9:30 -
Di, 20.08. 9:00 -
Di, 20.08. 8:30 -
Link zu dieser Seite / Seite empfehlen

Das Wetter in ...